Regional Weather Roundup
Issued by NWS

Home | Current Version | Previous Version | Text Only | Print | Product List | Glossary On
Versions: 1 2 3 4 5 6 7 8 9 10 11 12 13 14 15 16 17 18 19 20 21 22 23 24 25 26 27 28 29 30 31 32 33 34 35 36 37 38 39 40 41 42 43 44 45 46 47 48 49 50
000
ASUS45 KBOU 201210
RWRCO

WEATHER ROUNDUP FOR COLORADO
NATIONAL WEATHER SERVICE PUEBLO CO
600 AM MDT FRI APR 20 2018

NOTE: "FAIR" INDICATES FEW OR NO CLOUDS BELOW 12000 FEET WITH NO
SIGNIFICANT WEATHER AND/OR OBSTRUCTIONS TO VISIBILITY.

COZ001>005-013-030-031-201300-
...NORTHWEST COLORADO...

CITY           SKY/WX    TMP DP  RH WIND       PRES   REMARKS
CRAIG          LGT RAIN  41  37  86 S7        29.87R
HAYDEN         LGT RAIN  39  36  89 SW6       29.89S
MEEKER         CLOUDY    42  36  79 N7        29.85S
RABBIT EARS PA NOT AVBL
STEAMBOAT SPGS CLOUDY    43  30  62 W3        29.86R
WALDEN         MOCLDY    32  19  59 CALM      29.90R
$$

COZ006>008-011-201300-
...WEST CENTRAL VALLEYS...

CITY           SKY/WX    TMP DP  RH WIND       PRES   REMARKS
GRAND JUNCTION CLOUDY    53  20  27 SE14      29.78S
MONTROSE       CLOUDY    42  31  64 E15       29.88F
EAGLE          RAIN      39  35  86 W9        29.89R
RIFLE          CLOUDY    46  36  68 SE17G29   29.85R
DELTA          NOT AVBL
NUCLA          CLOUDY    45  19  36 S15       29.91R
$$

COZ017>023-064>068-201300-
...SOUTHWEST COLORADO...

CITY           SKY/WX    TMP DP  RH WIND       PRES   REMARKS
DURANGO        CLOUDY    44  14  29 S6        29.88R
CORTEZ         CLOUDY    44  11  26 S9        29.87R
PAGOSA SPRINGS LGT SNOW  33  33  98 NW3       29.95S
TELLURIDE      LGT SNOW  30  28  92 CALM      29.91F
WOLF CREEK PAS SNOW      19  19 100 SW16G26   30.00R VSB 1/2 WCI   5
$$

COZ009-010-012-014-032>034-037-058>063-201300-
...CENTRAL COLORADO...

CITY           SKY/WX    TMP DP  RH WIND       PRES   REMARKS
ASPEN          LGT SNOW  33  31  92 N9        29.87R VSB 1   WCI  25
BUENA VISTA    LGT RAIN  39  31  73 S6        29.92R
COPPER MTN     NOT AVBL
BERTHOUD PASS  FAIR      25  14  63 S45G58    30.01S WCI   5
COTTONWOOD PAS CLOUDY    37  32  81 SE14G21   29.94F
GUNNISON       LGT SNOW  33  32  96 S9        29.89R FOG     WCI  25
KREMMLING      CLOUDY    45  32  61 CALM      29.86S
LEADVILLE      MOCLDY    28  27  96 E3        29.92F
MONARCH PASS   SNOW      28  27  93 SE16G37   30.06F VSB 1/2 WCI  17
SALIDA         CLOUDY    41  35  80 S3        29.97F
SUNLIGHT       LGT SNOW  25  23  93 SW8G16    29.98R WCI  16
WILKERSON PASS LGT SNOW  28  27  93 SW6       30.03R VSB 3/4 WCI  22
$$

COZ069>075-201300-
...SAN LUIS VALLEY/SANGRE DE CRISTO MOUNTAINS...

CITY           SKY/WX    TMP DP  RH WIND       PRES   REMARKS
ALAMOSA        CLOUDY    44  27  51 S8        29.85S
DEL NORTE      RAIN      35  32  89 W18G25    29.89R WCI  24
LA VETA PASS   MOCLDY    41  27  56 S29G45    30.06F
SAGUACHE       NOT AVBL
$$

COZ035-036-038>040-201300-
...NORTHERN COLORADO FRONT RANGE...

CITY           SKY/WX    TMP DP  RH WIND       PRES   REMARKS
DENVER INTL AP MOCLDY    41  22  46 S13       29.90R
DMNS CITY PARK NOT AVBL
AURORA         PTCLDY    44  21  39 S10       29.91S
FRONT RANGE AP FAIR      44  23  43 S15       29.92S
ERIE MUNI ARPT FAIR      38  25  59 N3        29.97R
BOULDER MUN AP FAIR      39  25  56 CALM      29.92R
CENTENNIAL     PTCLDY    43  22  43 S8        29.91R
BROOMFIELD     CLEAR     39  25  56 N15       29.91R
LOVELAND       MOCLDY    37  26  64 N13       29.94R
LONGMONT       FAIR      42  27  55 N14G20    29.93R
$$

COZ041-046-047-076>085-087-088-201300-
...PIKES PEAK/PALMER DIVIDE AND SOUTHERN FOOTHILLS...

CITY           SKY/WX    TMP DP  RH WIND       PRES   REMARKS
COLO. SPRINGS  PTCLDY    40  21  46 SE9       29.97R
A. F. ACADEMY  CLEAR     38  19  46 SE9       29.96R
SCHRIEVER AFB  NOT AVBL
CHEYENNE MTN   NOT AVBL
ELLICOTT         N/A    N/A N/A N/A S25G35    29.94R
FALCON         FAIR      37  19  49 SE13G22   29.98R
FORT CARSON    PTCLDY    41  20  43 SE6       29.95R
LIMON          PTCLDY    34  25  69 SE17      29.98F WCI  23
MONUMENT HILL  CLEAR     36  21  55 S22G33    29.94S
CANON CITY     FAIR      48  23  37 NE18G28   29.87S
WALSENBURG     FAIR      50  23  34 SE16G25   29.86S
TRINIDAD       MOCLDY    49  21  33 VRB5      29.94R
$$

COZ042>045-048>051-090-091-201300-
...NORTHEAST COLORADO...

CITY           SKY/WX    TMP DP  RH WIND       PRES   REMARKS
GREELEY ARPT   MOCLDY    43  25  49 SE17G26   29.92S
AKRON          CLOUDY    40  27  59 SE28G37   30.00R
BURLINGTON     CLOUDY    40  28  62 SE26G35   30.07S
WRAY           FAIR      41  30  65 SE16G28   30.10S
YUMA           NOT AVBL
STERLING       NOT AVBL
HOLYOKE        FAIR      41  28  60 SE17      30.11S
FORT MORGAN    FAIR      42  24  48 SE18G30   29.99F
$$

COZ086-089-092>099-201300-
...SOUTHEAST COLORADO...

CITY           SKY/WX    TMP DP  RH WIND       PRES   REMARKS
PUEBLO         CLEAR     49  24  37 E28G38    29.88R
LA JUNTA       CLOUDY    49  26  41 SE24G32   30.00R
LAMAR          CLOUDY    46  27  47 SE16G26   30.05S
SPRINGFIELD      N/A     43  27  53 SE24G32   30.06F
$$




USA.gov is the U.S. government's official web portal to all federal, state and local government web resources and services.